Location: Newark
(46.7000°N, 60.6000°W)
Time: 04:26:02
(UTC+00:00)

A-11 Canister half - Pass Details

Date: 29 October 2020
Orbit: 1525 x 1683 km, 47.3° (Epoch: 23 November)

Event Time Altitude Azimuth Distance (km) Brightness Sun altitude
Rises 19:51:42 0° 255° (WSW) 4,772 13.3 8.3°
Reaches altitude 10° 19:54:48 10° 256° (WSW) 3,768 13.0 7.9°
Maximum altitude 20:04:21 88° 170° (S) 1,547 9.2 6.4°
Drops below altitude 10° 20:13:42 10° 80° (E) 3,695 10.4 5.0°
Sets 20:16:43 0° 81° (E) 4,676 10.9 4.6°
